Windom, MN

5:42 PM CDT on August 16, 2017 (GMT -0500)
Windom Municipal

Weather History for KMWM - August, 2014

Change the Weather History Date:

Sunday, August 17, 2014

  Actual Average Record
Temperature  
Mean Temperature 76 °F -  
Max Temperature 84 °F 83 °F 100 °F (1988)
Min Temperature 68 °F 60 °F 44 °F (2012)
Cooling Degree Days 11    
Growing Degree Days 26 (Base 50)    
Moisture  
Dew Point 69 °F    
Average Humidity 79    
Maximum Humidity 94    
Minimum Humidity 55    
Precipitation  
Precipitation 0.27 in - - ()
Sea Level Pressure  
Sea Level Pressure 29.92 in    
Wind  
Wind Speed 4 mph (SSW)    
Max Wind Speed 16 mph    
Max Gust Speed 23 mph    
Visibility 9 miles    
Events Rain , Thunderstorm    
Averages and records for this station are not official NWS values.
T = Trace of Precipitation, MM = Missing Value Source: NWS Daily Summary

Daily Weather History Graph

Daily Weather History Graph

Search for Another Location

Airport or City:

Trip Planner

Search our weather history database for the weather conditions in past years. The results will help you decide how hot, cold, wet, or windy it might be!

Date:

Astronomy

Aug. 17, 2014 Rise Set
Actual Time 6:26 AM CDT 8:21 PM CDT
Civil Twilight 5:55 AM CDT 8:52 PM CDT
Nautical Twilight 5:17 AM CDT 9:30 PM CDT
Astronomical Twilight 4:36 AM CDT 10:11 PM CDT
Moon No Moon Rise 2:29 PM CDT (8/17)
Length of Visible Light 14h 56m
Length of Day
13h 54m
Waning Gibbous, 48% of the Moon is Illuminated
Aug 17
Waning Gibbous
Aug 25
New
Sep 2
First Quarter
Sep 8
Full
Sep 15
Last Quarter

Hourly Weather History & Observations

Time (CDT) Temp. Heat Index Dew Point Humidity Pressure Visibility Wind Dir Wind Speed Gust Speed Precip Events Conditions
12:13 AM 71.6 °F - 68.0 °F 88% 29.94 in 10.0 mi Calm Calm - N/A   Clear
12:33 AM 71.6 °F - 68.0 °F 88% 29.94 in 10.0 mi Calm Calm - N/A   Clear
12:54 AM 68.0 °F - 64.4 °F 88% 29.94 in 5.0 mi Calm Calm - N/A   Clear
1:13 AM 68.0 °F - 66.2 °F 94% 29.94 in 4.0 mi Calm Calm - N/A   Scattered Clouds
1:33 AM 69.8 °F - 68.0 °F 94% 29.94 in 10.0 mi Calm Calm - N/A   Scattered Clouds
2:13 AM 69.8 °F - 66.2 °F 88% 29.94 in 10.0 mi Calm Calm - N/A   Scattered Clouds
2:33 AM 71.6 °F - 66.2 °F 83% 29.94 in 10.0 mi South 4.6 mph - N/A   Mostly Cloudy
2:54 AM 69.8 °F - 66.2 °F 88% 29.94 in 10.0 mi South 3.5 mph - N/A   Scattered Clouds
3:13 AM 69.8 °F - 66.2 °F 88% 29.94 in 10.0 mi South 4.6 mph - N/A   Clear
3:33 AM 69.8 °F - 66.2 °F 88% 29.94 in 10.0 mi South 4.6 mph - N/A   Clear
3:54 AM 69.8 °F - 66.2 °F 88% 29.94 in 7.0 mi Calm Calm - N/A   Clear
4:13 AM 69.8 °F - 66.2 °F 88% 29.94 in 7.0 mi South 3.5 mph - N/A   Clear
4:33 AM 69.8 °F - 66.2 °F 88% 29.94 in 7.0 mi South 3.5 mph - N/A   Scattered Clouds
4:54 AM 68.0 °F - 66.2 °F 94% 29.94 in 7.0 mi Calm Calm - N/A   Scattered Clouds
5:13 AM 68.0 °F - 66.2 °F 94% 29.94 in 7.0 mi Calm Calm - N/A   Clear
5:33 AM 68.0 °F - 66.2 °F 94% 29.94 in 7.0 mi Calm Calm - N/A   Clear
5:54 AM 68.0 °F - 66.2 °F 94% 29.94 in 7.0 mi Calm Calm - N/A   Scattered Clouds
6:13 AM 68.0 °F - 66.2 °F 94% 29.94 in 7.0 mi South 3.5 mph - N/A   Scattered Clouds
6:33 AM 68.0 °F - 66.2 °F 94% 29.94 in 7.0 mi South 3.5 mph - N/A   Clear
6:54 AM 68.0 °F - 66.2 °F 94% 29.95 in 7.0 mi South 4.6 mph - N/A   Scattered Clouds
7:13 AM 68.0 °F - 66.2 °F 94% 29.95 in 7.0 mi Calm Calm - N/A   Scattered Clouds
7:33 AM 69.8 °F - 66.2 °F 88% 29.95 in 7.0 mi Calm Calm - N/A   Mostly Cloudy
7:53 AM 71.6 °F - 66.2 °F 83% 29.95 in 10.0 mi SSW 5.8 mph - N/A   Scattered Clouds
8:14 AM 71.6 °F - 68.0 °F 88% 29.95 in 10.0 mi SSW 6.9 mph - N/A   Clear
8:33 AM 73.4 °F - 68.0 °F 83% 29.95 in 10.0 mi SSW 8.1 mph - N/A   Clear
8:53 AM 73.4 °F - 68.0 °F 83% 29.95 in 10.0 mi SSW 8.1 mph - N/A   Clear
9:14 AM 75.2 °F - 69.8 °F 83% 29.94 in 10.0 mi South 6.9 mph - N/A   Clear
9:33 AM 77.0 °F - 69.8 °F 78% 29.95 in 10.0 mi South 9.2 mph - N/A   Clear
9:53 AM 78.8 °F - 69.8 °F 74% 29.96 in 10.0 mi South 8.1 mph - N/A   Scattered Clouds
10:14 AM 78.8 °F - 69.8 °F 74% 29.96 in 10.0 mi South 9.2 mph - N/A   Scattered Clouds
10:33 AM 78.8 °F - 69.8 °F 74% 29.97 in 10.0 mi South 8.1 mph - N/A   Scattered Clouds
10:53 AM 80.6 °F 83.9 °F 69.8 °F 70% 29.97 in 10.0 mi South 10.4 mph - N/A   Mostly Cloudy
11:14 AM 80.6 °F 83.9 °F 69.8 °F 70% 29.96 in 10.0 mi South 9.2 mph - N/A   Scattered Clouds
11:33 AM 80.6 °F 83.9 °F 69.8 °F 70% 29.96 in 10.0 mi South 9.2 mph - N/A   Clear
11:53 AM 82.4 °F 86.3 °F 69.8 °F 66% 29.95 in 10.0 mi South 9.2 mph - N/A   Scattered Clouds
12:14 PM 82.4 °F 87.2 °F 71.6 °F 70% 29.95 in 10.0 mi South 11.5 mph 16.1 mph N/A   Scattered Clouds
12:33 PM 82.4 °F 86.3 °F 69.8 °F 66% 29.94 in 10.0 mi South 11.5 mph - N/A   Scattered Clouds
12:53 PM 82.4 °F 86.3 °F 69.8 °F 66% 29.94 in 10.0 mi South 10.4 mph 19.6 mph N/A   Scattered Clouds
1:14 PM 82.4 °F 86.3 °F 69.8 °F 66% 29.93 in 10.0 mi South 13.8 mph 19.6 mph N/A   Mostly Cloudy
1:33 PM 82.4 °F 86.3 °F 69.8 °F 66% 29.92 in 10.0 mi SSE 13.8 mph 17.3 mph N/A   Scattered Clouds
1:53 PM 82.4 °F 87.2 °F 71.6 °F 70% 29.92 in 10.0 mi South 15.0 mph 21.9 mph N/A   Scattered Clouds
2:14 PM 82.4 °F 86.3 °F 69.8 °F 66% 29.90 in 10.0 mi South 13.8 mph 21.9 mph N/A   Scattered Clouds
2:33 PM 82.4 °F 87.2 °F 71.6 °F 70% 29.90 in 10.0 mi South 16.1 mph 23.0 mph N/A   Scattered Clouds
2:53 PM 82.4 °F 87.2 °F 71.6 °F 70% 29.91 in 10.0 mi South 12.7 mph - N/A   Mostly Cloudy
3:14 PM 80.6 °F 84.6 °F 71.6 °F 74% 29.91 in 4.0 mi SSW 4.6 mph 9.2 mph 0.02 in Rain , Thunderstorm Heavy Thunderstorms and Rain
3:33 PM 77.0 °F - 71.6 °F 83% 29.91 in 4.0 mi Calm Calm - 0.26 in Rain , Thunderstorm Heavy Thunderstorms and Rain
3:53 PM 80.6 °F 84.6 °F 71.6 °F 74% 29.91 in 10.0 mi Calm Calm - 0.27 in Thunderstorm Thunderstorm
4:14 PM 82.4 °F 87.2 °F 71.6 °F 70% 29.90 in 10.0 mi WSW 9.2 mph - N/A   Mostly Cloudy
4:33 PM 84.2 °F 89.6 °F 71.6 °F 66% 29.90 in 10.0 mi WSW 9.2 mph 16.1 mph N/A   Mostly Cloudy
5:13 PM 84.2 °F 87.3 °F 68.0 °F 58% 29.89 in 10.0 mi West 11.5 mph - N/A   Scattered Clouds
5:33 PM 84.2 °F 86.6 °F 66.2 °F 55% 29.88 in 10.0 mi WSW 8.1 mph 16.1 mph N/A   Clear
5:54 PM 84.2 °F 87.3 °F 68.0 °F 58% 29.87 in 10.0 mi WSW 6.9 mph - N/A   Scattered Clouds
6:13 PM 82.4 °F 86.3 °F 69.8 °F 66% 29.87 in 10.0 mi SW 4.6 mph - N/A   Scattered Clouds
6:33 PM 82.4 °F 86.3 °F 69.8 °F 66% 29.86 in 10.0 mi WSW 6.9 mph - N/A   Scattered Clouds
6:54 PM 82.4 °F 86.3 °F 69.8 °F 66% 29.86 in 10.0 mi SSW 3.5 mph - N/A   Scattered Clouds
7:13 PM 82.4 °F 86.3 °F 69.8 °F 66% 29.85 in 10.0 mi SSW 5.8 mph - N/A   Scattered Clouds
7:33 PM 80.6 °F 83.9 °F 69.8 °F 70% 29.85 in 10.0 mi South 4.6 mph - N/A   Clear
7:53 PM 78.8 °F - 69.8 °F 74% 29.86 in 10.0 mi SW 3.5 mph - N/A   Clear
8:13 PM 78.8 °F - 71.6 °F 78% 29.87 in 10.0 mi SSW 3.5 mph - N/A   Scattered Clouds
8:34 PM 78.8 °F - 69.8 °F 74% 29.87 in 10.0 mi South 3.5 mph - N/A   Scattered Clouds
8:53 PM 77.0 °F - 69.8 °F 78% 29.88 in 10.0 mi South 3.5 mph - N/A   Scattered Clouds
9:13 PM 77.0 °F - 71.6 °F 83% 29.89 in 10.0 mi SW 5.8 mph - N/A   Mostly Cloudy
9:34 PM 75.2 °F - 69.8 °F 83% 29.89 in 10.0 mi WSW 4.6 mph - N/A   Scattered Clouds
9:53 PM 73.4 °F - 69.8 °F 88% 29.89 in 10.0 mi WSW 6.9 mph - N/A   Clear
10:13 PM 73.4 °F - 69.8 °F 88% 29.90 in 10.0 mi West 5.8 mph - N/A   Clear
10:34 PM 73.4 °F - 69.8 °F 88% 29.89 in 10.0 mi WSW 3.5 mph - N/A   Scattered Clouds
10:53 PM 73.4 °F - 69.8 °F 88% 29.89 in 10.0 mi Calm Calm - N/A   Clear
11:13 PM 71.6 °F - 69.8 °F 94% 29.88 in 10.0 mi Calm Calm - N/A   Clear
11:34 PM 71.6 °F - 68.0 °F 88% 29.88 in 10.0 mi SW 3.5 mph - N/A   Clear
11:53 PM 71.6 °F - 68.0 °F 88% 29.87 in 10.0 mi Calm Calm - N/A   Clear